Weather in Los Anzheles

United States     34°05′32″N   117°57′14″W
temp.,
°C
wind,
m/s
gust,
m/s
humid.,
%
clouds,
%
prec.,
mm/h
press.,
hPa
HPBL,
m
18 september, sat
sat1823:00+20sw216164 0.0 1017422
02:00+19sw216883 0.0 1016384
05:00+18wsw327387 0.0 1017332
08:00+18sw217839 0.0 1018414
11:00+22sw32590 0.0 1018654
14:00+26sw42390 0.0 1016835
17:00+25sw43400 0.0 1015726
20:00+21wsw32580 0.0 1016446
19 september, sun
sun1923:00+20sw21630 0.0 1016338
02:00+19ssw21660 0.0 1015270
05:00+18s11690 0.0 1014184
08:00+19ssw10680 0.0 1015256
11:00+23ssw21460 0.0 1014572
14:00+28sw43310 0.0 1011917
17:00+27sw44360 0.0 1010807
20:00+23ssw32470 0.0 1011404
20 september, mon
mon2023:00+22s21520 0.0 1011247
02:00+21ssw11550 0.0 1010154
05:00+20sw11590 0.0 1010126
08:00+21sw11560 0.0 1012166
11:00+26sw21380 0.0 1012476
14:00+30sw32270 0.0 1011786
17:00+28ssw44370 0.0 1011616
20:00+24ssw32540 0.0 1013359
21 september, tue
tue2123:00+23sw21610 0.0 1014241
02:00+22sw22670 0.0 1014177
05:00+21sw11710 0.0 1015133
08:00+22ssw22690 0.0 1017177
11:00+26sw31470 0.0 1017504
14:00+31sw42340 0.0 1016618
17:00+30sw54360 0.0 1015626
20:00+26sw32480 0.0 1017323
22 september, wed
wed2223:00+25sw11550 0.0 1018209
02:00+24sw11580 0.0 101785
05:00+23wsw11560 0.0 101740
08:00+24w11510 0.0 1017101
11:00+30sw22300 0.0 1017403
14:00+33w44220 0.0 1014689
17:00+31wsw55230 0.0 1013468
20:00+28ssw22270 0.0 1013257